[[{"header":{"parameterUnit":"m.s-1","parameterCategory":1,"la1":30.2991,"la2":30.254,"lo1":-89.0895,"lo2":-89.0444,"dy":0.0017,"dx":0.0017,"nx":28,"ny":28,"refTime":"2024-07-30T21:00:00:Z","depth":0,"parameterNumber":2,"parameterNumberName":"U-component_of_WINDS"},"data":[0,0,0,0,0,0,0,0,0,0,0,0,0,0,0,0,0,0,0,0,0,0,0,0,0,0,0,0,0,0,0,0,0,0,0,0,0,0,0,0,0,0,0,0,0,0,0,0,0,0,0,0,0,0,0,0,0,0,3.9525,3.9526,0,3.9642,3.9643,3.9644,3.9582,3.9579,3.9576,3.9573,3.9694,3.97,3.9706,0,0,0,0,0,0,0,0,0,0,0,0,0,3.9249,3.9254,3.9525,3.9526,3.9528,3.9641,3.9643,3.9645,3.9583,3.9579,3.9575,3.9571,3.9692,3.9699,3.9706,0,0,0,0,0,0,0,0,0,0,0,0,0,3.9367,3.9256,3.9525,3.9511,3.9511,3.9641,3.9643,3.9645,3.9583,3.9579,3.9574,3.957,3.9689,3.9698,3.9707,3.9859,0,0,3.9736,3.974,0,0,0,0,0,0,0,0,3.9361,3.9378,3.9511,3.9512,3.9512,3.9592,3.959,3.9717,3.9585,3.9556,3.9573,3.9567,3.9664,3.9675,3.9707,3.9865,3.987,3.9736,3.9742,3.9746,3.9749,0,0,0,0,0,0,0,3.9353,3.9372,3.9571,3.9513,3.9514,3.9498,3.951,3.9614,3.9635,3.9558,3.9554,3.9568,3.9663,3.9698,3.971,3.9872,3.9736,3.9744,3.975,3.9754,4.0156,4.0161,0,0,0,0,0,0,3.9345,3.9366,3.9567,3.9575,3.9423,3.9507,3.952,3.9571,3.9634,3.9639,3.9572,3.9565,3.9685,3.9699,3.9714,3.9893,3.9746,3.9755,3.976,4.0151,4.0157,4.0163,0,0,0,0,0,0,3.9339,3.9364,3.9563,3.9469,3.9493,3.9517,3.9575,3.9576,3.9611,3.9644,3.9648,3.9604,3.9682,3.9701,3.9822,3.9896,3.9759,3.9767,4.0145,4.0153,4.016,4.0254,0,0,0,0,0,0,3.9332,3.9362,3.942,3.9471,3.9498,3.967,3.958,3.9582,3.9627,3.9619,3.9675,3.968,3.968,3.9809,3.9832,3.9907,3.9774,4.0138,4.0148,4.0158,4.0245,4.0264,4.0281,0,0,0,0,0,3.9322,3.9443,3.9423,3.9448,3.9572,3.9674,3.969,3.9686,3.9634,3.9692,3.9712,3.9679,3.9885,3.9822,3.9847,3.9926,4.0134,4.0146,4.0157,4.0237,4.0261,4.0281,0,0,0,0,0,0,3.9401,3.9449,3.9428,3.9569,3.9618,3.9664,3.9737,3.9712,3.9778,3.9767,3.976,3.9774,3.99,3.9925,3.9854,4.0074,4.0001,4.0018,4.0053,4.0076,4.0094,4.0085,3.9782,0,0,0,0,0,3.9435,3.9515,3.9552,3.9673,3.9698,3.9714,3.9759,3.9751,3.9802,3.9822,3.9852,3.9903,3.9979,4.0029,4.0101,4.0248,4.0259,4.0315,4.0333,4.0348,4.0362,4.044,4.0464,4.0201,4.0201,4.0201,0,0,3.9506,3.9542,3.9593,3.969,3.9727,3.9809,3.9732,3.9822,3.9883,3.9836,3.9952,3.9976,4.0032,4.0167,4.0227,4.0192,4.0437,4.0363,4.0374,4.0381,4.0454,4.0479,4.0501,4.0209,4.0207,4.0206,0,0,3.9676,3.9713,3.9816,3.9854,3.991,3.9919,3.9944,3.9993,4.0007,4.0123,4.0089,4.0161,4.0293,4.0333,4.0371,4.0554,4.0525,4.0578,4.0673,4.0749,4.0769,4.0788,4.0851,4.0874,4.0593,4.0593,4.0593,0,3.9758,3.9879,3.9872,3.9965,4.0007,3.9968,4.0072,4.0109,4.0187,4.0217,4.0176,4.0338,4.0374,4.0516,4.056,4.0593,4.062,4.0571,4.0767,4.0785,4.0802,4.0862,4.0887,4.0599,4.0598,4.0598,4.0597,0,3.9975,4.006,4.0137,4.0211,4.0262,4.0361,4.0367,4.0421,4.0408,4.0422,4.0539,4.058,4.0658,4.0691,4.0681,4.0832,4.0807,4.0767,4.0693,4.0833,4.089,4.0913,4.0608,4.0605,4.0604,4.0602,0,0,4.02,4.0267,4.0295,4.0327,4.0386,4.0451,4.0547,4.0622,4.0667,4.0721,4.08,4.0911,4.0873,4.0916,4.091,4.0976,4.1116,4.0927,4.0928,4.0959,4.1282,4.1311,4.1338,4.1097,4.1102,4.1105,4.1277,0,4.0373,4.0539,4.0534,4.0688,4.0766,4.0728,4.0811,4.0856,4.087,4.0938,4.0954,4.1032,4.0977,4.1002,4.1066,4.1086,4.1181,4.1073,4.1169,4.1173,4.1155,4.1368,4.14,4.156,4.1299,4.1303,4.1306,0,4.0597,4.0657,4.0819,4.0863,4.0895,4.097,4.1037,4.1103,4.1152,4.1157,4.1204,4.1187,4.1283,4.1206,4.1337,4.1264,4.1303,4.1319,4.1325,4.1333,4.1247,4.138,4.1611,4.1634,4.1341,4.1338,4.1335,0,4.0742,4.0864,4.0975,4.1004,4.106,4.1112,4.1138,4.1182,4.1227,4.1286,4.1315,4.1385,4.1423,4.1478,4.1479,4.1424,4.1611,4.1535,4.1617,4.1617,4.1657,4.1655,4.1896,4.1685,4.1685,4.1685,4.1684,0,4.0935,4.1035,4.1041,4.1109,4.122,4.1213,4.1322,4.1343,4.1382,4.1454,4.1426,4.1494,4.1492,4.1561,4.1563,4.167,4.1688,4.1694,4.1693,4.1696,4.1695,4.172,4.1709,4.1691,4.169,4.1688,4.1687,0,4.1115,4.1124,4.1242,4.1284,4.1297,4.1377,4.1412,4.1477,4.1488,4.1579,4.16,4.1618,4.1697,4.1703,4.1796,4.1797,4.1925,4.1913,4.1909,4.1906,4.1987,4.1978,4.2252,4.2286,4.2055,4.2057,4.2059,0,4.1237,4.1313,4.1362,4.1407,4.1436,4.151,4.1554,4.155,4.1598,4.1659,4.1716,4.1792,4.1852,4.198,4.2001,4.2071,4.2059,4.215,4.207,4.2069,4.2058,4.2053,4.2059,4.2166,4.2168,4.217,4.2172,0,4.1452,4.1451,4.1517,4.1584,4.1638,4.1691,4.174,4.1778,4.178,4.1835,4.1915,4.1962,4.2054,4.213,4.2197,4.2223,4.2198,4.2197,4.2219,4.2222,4.2215,4.2218,4.1949,4.2191,4.2189,4.2188,4.2187,4.2186,4.1606,4.167,4.1714,4.1787,4.1823,4.1869,4.1931,4.1949,4.2016,4.209,4.2084,4.2172,4.2217,4.2305,4.2336,4.2404,4.2373,4.2406,4.2414,4.2422,4.2429,4.2206,4.2417,4.2416,4.2416,4.2415,4.2415,0,4.1817,4.1843,4.191,4.1979,4.2036,4.2006,4.2058,4.2108,4.2185,4.2229,4.2289,4.2379,4.2451,4.2478,4.2548,4.2597,4.2587,4.2615,4.2611,4.2617,4.2454,4.2426,4.2622,4.2622,4.2622,4.2622,4.2622,4.2622,4.1934,4.204,4.2045,4.2168,4.2193,4.2278,4.231,4.2352,4.2387,4.2488,4.2548,4.2564,4.26,4.2672,4.2737,4.2743,4.2769,4.2802,4.2803,4.265,4.2629,4.2609,4.2583,4.2808,4.2809,4.296,4.2961,4.2962]},{"header":{"parameterUnit":"m.s-1","parameterCategory":1,"la1":30.2991,"la2":30.254,"lo1":-89.0895,"lo2":-89.0444,"dy":0.0017,"dx":0.0017,"nx":28,"ny":28,"refTime":"2024-07-30T21:00:00:Z","depth":0,"parameterNumber":3,"parameterNumberName":"V-component_of_WINDS"},"data":[0,0,0,0,0,0,0,0,0,0,0,0,0,0,0,0,0,0,0,0,0,0,0,0,0,0,0,0,0,0,0,0,0,0,0,0,0,0,0,0,0,0,0,0,0,0,0,0,0,0,0,0,0,0,0,0,0,0,1.1108,1.1108,0,1.1135,1.1135,1.1135,1.1126,1.1125,1.1125,1.1124,1.1152,1.1154,1.1155,0,0,0,0,0,0,0,0,0,0,0,0,0,1.1046,1.1048,1.1108,1.1108,1.1108,1.1135,1.1135,1.1136,1.1126,1.1125,1.1124,1.1124,1.1152,1.1153,1.1155,0,0,0,0,0,0,0,0,0,0,0,0,0,1.1073,1.1048,1.1108,1.1107,1.1107,1.1135,1.1135,1.1136,1.1126,1.1125,1.1124,1.1123,1.1151,1.1153,1.1155,1.1186,0,0,1.1161,1.1162,0,0,0,0,0,0,0,0,1.1072,1.1076,1.1106,1.1107,1.1107,1.1126,1.1124,1.1152,1.1126,1.1119,1.1124,1.1123,1.1144,1.1147,1.1154,1.1187,1.1188,1.1161,1.1163,1.1163,1.1164,0,0,0,0,0,0,0,1.107,1.1074,1.1118,1.1107,1.1107,1.1105,1.1107,1.1129,1.1136,1.1119,1.1119,1.1122,1.1144,1.1152,1.1154,1.1189,1.1161,1.1163,1.1164,1.1165,1.1246,1.1247,0,0,0,0,0,0,1.1068,1.1073,1.1118,1.1119,1.1087,1.1106,1.111,1.1121,1.1136,1.1137,1.1123,1.1121,1.1149,1.1152,1.1155,1.1191,1.1163,1.1165,1.1166,1.1246,1.1247,1.1248,0,0,0,0,0,0,1.1067,1.1072,1.1116,1.1096,1.1101,1.1108,1.1121,1.1122,1.113,1.1139,1.114,1.1129,1.1148,1.1153,1.1178,1.1192,1.1166,1.1168,1.1244,1.1246,1.1247,1.1264,0,0,0,0,0,0,1.1065,1.1072,1.1084,1.1096,1.1102,1.1139,1.1122,1.1123,1.1133,1.1132,1.1145,1.1147,1.1148,1.1175,1.118,1.1194,1.117,1.1243,1.1245,1.1247,1.1262,1.1266,1.1269,0,0,0,0,0,1.1063,1.1088,1.1084,1.109,1.1118,1.114,1.1143,1.1144,1.1134,1.1146,1.1152,1.1146,1.119,1.1178,1.1183,1.1198,1.1242,1.1244,1.1247,1.1261,1.1265,1.1269,0,0,0,0,0,0,1.1078,1.1089,1.1086,1.1116,1.1127,1.1138,1.1153,1.1149,1.1163,1.1162,1.1162,1.1165,1.1191,1.1197,1.1184,1.1228,1.1214,1.1218,1.1223,1.1227,1.1231,1.1229,1.1171,0,0,0,0,0,1.1084,1.1101,1.111,1.1136,1.1141,1.1146,1.1156,1.1156,1.1167,1.1172,1.1179,1.1191,1.1207,1.1217,1.1233,1.1263,1.1265,1.1276,1.1279,1.1282,1.1285,1.13,1.1304,1.1255,1.1255,1.1255,0,0,1.1098,1.1107,1.1118,1.1139,1.1147,1.1164,1.115,1.117,1.1182,1.1175,1.1199,1.1204,1.1217,1.1244,1.1257,1.125,1.1299,1.1285,1.1287,1.1288,1.1302,1.1307,1.1311,1.1256,1.1256,1.1256,0,0,1.1132,1.1141,1.1162,1.1171,1.1183,1.1186,1.1191,1.1203,1.1206,1.123,1.1224,1.1239,1.1267,1.1276,1.1284,1.1319,1.1315,1.1324,1.1342,1.1357,1.1361,1.1364,1.1376,1.138,1.1327,1.1327,1.1327,0,1.1148,1.1174,1.1174,1.1193,1.1202,1.1195,1.1216,1.1225,1.1242,1.1248,1.124,1.1274,1.1282,1.1311,1.1319,1.1327,1.1332,1.1323,1.136,1.1363,1.1367,1.1378,1.1383,1.1328,1.1328,1.1328,1.1328,0,1.1193,1.121,1.1226,1.1242,1.1253,1.1273,1.1275,1.1286,1.1284,1.1287,1.1311,1.132,1.1337,1.1343,1.1342,1.1372,1.1367,1.136,1.1346,1.1372,1.1383,1.1388,1.133,1.1329,1.1329,1.1329,0,0,1.1238,1.1252,1.1258,1.1265,1.1277,1.1291,1.131,1.1326,1.1334,1.1346,1.1362,1.1385,1.1377,1.1386,1.1386,1.1399,1.1425,1.139,1.139,1.1396,1.1457,1.1462,1.1467,1.1422,1.1422,1.1423,1.1455,0,1.1273,1.1307,1.1306,1.1337,1.1353,1.1346,1.1362,1.1372,1.1375,1.1388,1.1392,1.1408,1.1397,1.1403,1.1415,1.1419,1.1437,1.1417,1.1436,1.1437,1.1433,1.1473,1.1479,1.1509,1.146,1.146,1.1461,0,1.1319,1.1331,1.1363,1.1372,1.1379,1.1394,1.1407,1.142,1.143,1.1431,1.144,1.1437,1.1456,1.1442,1.1467,1.1453,1.146,1.1464,1.1465,1.1467,1.1451,1.1476,1.1519,1.1523,1.1468,1.1467,1.1467,0,1.1348,1.1373,1.1395,1.1401,1.1412,1.1422,1.1427,1.1436,1.1445,1.1456,1.1462,1.1475,1.1483,1.1493,1.1494,1.1483,1.1519,1.1505,1.152,1.152,1.1529,1.1528,1.1574,1.1534,1.1534,1.1533,1.1533,0,1.1387,1.1407,1.1408,1.1422,1.1443,1.1442,1.1463,1.1467,1.1475,1.1489,1.1483,1.1497,1.1496,1.1509,1.151,1.153,1.1534,1.1535,1.1535,1.1535,1.1535,1.1541,1.1538,1.1535,1.1534,1.1534,1.1534,0,1.1424,1.1425,1.1449,1.1457,1.1459,1.1475,1.1481,1.1494,1.1496,1.1513,1.1517,1.152,1.1535,1.1537,1.1554,1.1554,1.1579,1.1577,1.1576,1.1575,1.159,1.1589,1.1641,1.1647,1.1603,1.1604,1.1604,0,1.1449,1.1464,1.1473,1.1481,1.1487,1.1501,1.151,1.1508,1.1517,1.1529,1.154,1.1554,1.1565,1.159,1.1593,1.1606,1.1604,1.1621,1.1606,1.1606,1.1604,1.1603,1.1604,1.1625,1.1625,1.1625,1.1626,0,1.1493,1.1492,1.1505,1.1517,1.1527,1.1537,1.1546,1.1554,1.1553,1.1563,1.1578,1.1587,1.1604,1.1618,1.1631,1.1635,1.163,1.163,1.1634,1.1635,1.1634,1.1634,1.1583,1.1629,1.1629,1.1629,1.1628,1.1628,1.1524,1.1537,1.1544,1.1558,1.1564,1.1573,1.1584,1.1587,1.1599,1.1613,1.1611,1.1628,1.1636,1.1652,1.1657,1.1669,1.1664,1.167,1.1671,1.1673,1.1674,1.1632,1.1672,1.1672,1.1672,1.1672,1.1671,0,1.1567,1.1571,1.1584,1.1596,1.1607,1.16,1.1609,1.1618,1.1633,1.164,1.1651,1.1668,1.1681,1.1685,1.1697,1.1706,1.1704,1.171,1.1709,1.171,1.1679,1.1674,1.1711,1.1711,1.1711,1.1711,1.1711,1.1711,1.1591,1.1611,1.1611,1.1634,1.1638,1.1654,1.1659,1.1666,1.1672,1.1691,1.1701,1.1704,1.1709,1.1722,1.1733,1.1734,1.1739,1.1745,1.1745,1.1716,1.1712,1.1708,1.1704,1.1746,1.1746,1.1775,1.1775,1.1775]}]]